Year,Month,Day,Hour,Minute,Value (Times are PST for temperature in C)
2021,06,28,00,00,23.30
2021,06,28,00,01,23.30
2021,06,28,00,02,23.30
2021,06,28,00,03,23.30
2021,06,28,00,04,23.30
2021,06,28,00,05,23.30
2021,06,28,00,06,23.30
2021,06,28,00,07,23.30
2021,06,28,00,08,23.30
2021,06,28,00,09,23.30
2021,06,28,00,10,23.30
2021,06,28,00,11,23.30
2021,06,28,00,12,23.30
2021,06,28,00,13,23.30
2021,06,28,00,14,23.30
2021,06,28,00,15,23.20
2021,06,28,00,16,23.20
2021,06,28,00,17,23.20
2021,06,28,00,18,23.20
2021,06,28,00,19,23.20
2021,06,28,00,20,23.20
2021,06,28,00,21,23.20
2021,06,28,00,22,23.20
2021,06,28,00,23,23.20
2021,06,28,00,24,23.20
2021,06,28,00,25,23.20
2021,06,28,00,26,23.10
2021,06,28,00,27,23.10
2021,06,28,00,28,23.10
2021,06,28,00,29,23.10
2021,06,28,00,30,23.00
2021,06,28,00,31,23.00
2021,06,28,00,32,22.90
2021,06,28,00,33,22.90
2021,06,28,00,34,22.90
2021,06,28,00,35,22.90
2021,06,28,00,36,22.90
2021,06,28,00,37,22.90
2021,06,28,00,38,22.90
2021,06,28,00,39,23.00
2021,06,28,00,40,23.00
2021,06,28,00,41,23.00
2021,06,28,00,42,23.00
2021,06,28,00,43,23.00
2021,06,28,00,44,23.00
2021,06,28,00,45,23.00
2021,06,28,00,46,23.00
2021,06,28,00,47,23.00
2021,06,28,00,48,23.00
2021,06,28,00,49,23.10
2021,06,28,00,50,23.10
2021,06,28,00,51,23.10
2021,06,28,00,52,23.10
2021,06,28,00,53,23.00
2021,06,28,00,54,23.00
2021,06,28,00,55,23.00
2021,06,28,00,56,22.90
2021,06,28,00,57,22.90
2021,06,28,00,58,22.90
2021,06,28,00,59,22.90
2021,06,28,01,00,22.80
2021,06,28,01,01,22.80
2021,06,28,01,02,22.80
2021,06,28,01,03,22.80
2021,06,28,01,04,22.80
2021,06,28,01,05,22.70
2021,06,28,01,06,22.70
2021,06,28,01,07,22.70
2021,06,28,01,08,22.70
2021,06,28,01,09,22.80
2021,06,28,01,10,22.80
2021,06,28,01,11,22.80
2021,06,28,01,12,22.80
2021,06,28,01,13,22.90
2021,06,28,01,14,22.90
2021,06,28,01,15,22.90
2021,06,28,01,16,23.00
2021,06,28,01,17,23.10
2021,06,28,01,18,23.10
2021,06,28,01,19,23.20
2021,06,28,01,20,23.20
2021,06,28,01,21,23.30
2021,06,28,01,22,23.30
2021,06,28,01,23,23.30
2021,06,28,01,24,23.40
2021,06,28,01,25,23.40
2021,06,28,01,26,23.40
2021,06,28,01,27,23.50
2021,06,28,01,28,23.50
2021,06,28,01,29,23.60
2021,06,28,01,30,23.60
2021,06,28,01,31,23.60
2021,06,28,01,32,23.60
2021,06,28,01,33,23.60
2021,06,28,01,34,23.70
2021,06,28,01,35,23.70
2021,06,28,01,36,23.70
2021,06,28,01,37,23.70
2021,06,28,01,38,23.70
2021,06,28,01,39,23.70
2021,06,28,01,40,23.70
2021,06,28,01,41,23.70
2021,06,28,01,42,23.70
2021,06,28,01,43,23.70
2021,06,28,01,44,23.70
2021,06,28,01,45,23.70
2021,06,28,01,46,23.70
2021,06,28,01,47,23.70
2021,06,28,01,48,23.80
2021,06,28,01,49,23.80
2021,06,28,01,50,23.80
2021,06,28,01,51,23.80
2021,06,28,01,52,23.80
2021,06,28,01,53,23.80
2021,06,28,01,54,23.70
2021,06,28,01,55,23.70
2021,06,28,01,56,23.70
2021,06,28,01,57,23.70
2021,06,28,01,58,23.70
2021,06,28,01,59,23.70
2021,06,28,02,00,23.70
2021,06,28,02,01,23.70
2021,06,28,02,02,23.70
2021,06,28,02,03,23.70
2021,06,28,02,04,23.70
2021,06,28,02,05,23.70
2021,06,28,02,06,23.70
2021,06,28,02,07,23.70
2021,06,28,02,08,23.70
2021,06,28,02,09,23.70
2021,06,28,02,10,23.70
2021,06,28,02,11,23.60
2021,06,28,02,12,23.60
2021,06,28,02,13,23.60
2021,06,28,02,14,23.60
2021,06,28,02,15,23.60
2021,06,28,02,16,23.60
2021,06,28,02,17,23.50
2021,06,28,02,18,23.50
2021,06,28,02,19,23.40
2021,06,28,02,20,23.40
2021,06,28,02,21,23.40
2021,06,28,02,22,23.40
2021,06,28,02,23,23.40
2021,06,28,02,24,23.40
2021,06,28,02,25,23.30
2021,06,28,02,26,23.30
2021,06,28,02,27,23.30
2021,06,28,02,28,23.30
2021,06,28,02,29,23.30
2021,06,28,02,30,23.30
2021,06,28,02,31,23.30
2021,06,28,02,32,23.30
2021,06,28,02,33,23.30
2021,06,28,02,34,23.20
2021,06,28,02,35,23.20
2021,06,28,02,36,23.20
2021,06,28,02,37,23.20
2021,06,28,02,38,23.10
2021,06,28,02,39,23.10
2021,06,28,02,40,23.10
2021,06,28,02,41,23.10
2021,06,28,02,42,23.00
2021,06,28,02,43,23.00
2021,06,28,02,44,23.00
2021,06,28,02,45,22.90
2021,06,28,02,46,22.90
2021,06,28,02,47,22.90
2021,06,28,02,48,22.90
2021,06,28,02,49,22.90
2021,06,28,02,50,22.80
2021,06,28,02,51,22.80
2021,06,28,02,52,22.80
2021,06,28,02,53,22.80
2021,06,28,02,54,22.80
2021,06,28,02,55,22.80
2021,06,28,02,56,22.80
2021,06,28,02,57,22.70
2021,06,28,02,58,22.70
2021,06,28,02,59,22.70
2021,06,28,03,00,22.70
2021,06,28,03,01,22.70
2021,06,28,03,02,22.70
2021,06,28,03,03,22.70
2021,06,28,03,04,22.70
2021,06,28,03,05,22.70
2021,06,28,03,06,22.70
2021,06,28,03,07,22.60
2021,06,28,03,08,22.60
2021,06,28,03,09,22.60
2021,06,28,03,10,22.60
2021,06,28,03,11,22.60
2021,06,28,03,12,22.60
2021,06,28,03,13,22.60
2021,06,28,03,14,22.60
2021,06,28,03,15,22.50
2021,06,28,03,16,22.50
2021,06,28,03,17,22.50
2021,06,28,03,18,22.50
2021,06,28,03,19,22.50
2021,06,28,03,20,22.50
2021,06,28,03,21,22.50
2021,06,28,03,22,22.50
2021,06,28,03,23,22.40
2021,06,28,03,24,22.40
2021,06,28,03,25,22.40
2021,06,28,03,26,22.40
2021,06,28,03,27,22.30
2021,06,28,03,28,22.30
2021,06,28,03,29,22.30
2021,06,28,03,30,22.30
2021,06,28,03,31,22.30
2021,06,28,03,32,22.20
2021,06,28,03,33,22.20
2021,06,28,03,34,22.10
2021,06,28,03,35,22.10
2021,06,28,03,36,22.00
2021,06,28,03,37,21.90
2021,06,28,03,38,21.90
2021,06,28,03,39,21.80
2021,06,28,03,40,21.80
2021,06,28,03,41,21.80
2021,06,28,03,42,21.70
2021,06,28,03,43,21.70
2021,06,28,03,44,21.70
2021,06,28,03,45,21.70
2021,06,28,03,46,21.70
2021,06,28,03,47,21.70
2021,06,28,03,48,21.80
2021,06,28,03,49,21.80
2021,06,28,03,50,21.80
2021,06,28,03,51,21.80
2021,06,28,03,52,21.80
2021,06,28,03,53,21.80
2021,06,28,03,54,21.80
2021,06,28,03,55,21.90
2021,06,28,03,56,21.90
2021,06,28,03,57,21.90
2021,06,28,03,58,21.90
2021,06,28,03,59,21.90
2021,06,28,04,00,21.90
2021,06,28,04,01,22.00
2021,06,28,04,02,22.00
2021,06,28,04,03,22.10
2021,06,28,04,04,22.10
2021,06,28,04,05,22.10
2021,06,28,04,06,22.20
2021,06,28,04,07,22.20
2021,06,28,04,08,22.20
2021,06,28,04,09,22.30
2021,06,28,04,10,22.30
2021,06,28,04,11,22.30
2021,06,28,04,12,22.30
2021,06,28,04,13,22.30
2021,06,28,04,14,22.40
2021,06,28,04,15,22.40
2021,06,28,04,16,22.50
2021,06,28,04,17,22.50
2021,06,28,04,18,22.50
2021,06,28,04,19,22.60
2021,06,28,04,20,22.60
2021,06,28,04,21,22.60
2021,06,28,04,22,22.60
2021,06,28,04,23,22.60
2021,06,28,04,24,22.50
2021,06,28,04,25,22.50
2021,06,28,04,26,22.50
2021,06,28,04,27,22.50
2021,06,28,04,28,22.40
2021,06,28,04,29,22.40
2021,06,28,04,30,22.40
2021,06,28,04,31,22.40
2021,06,28,04,32,22.40
2021,06,28,04,33,22.40
2021,06,28,04,34,22.30
2021,06,28,04,35,22.30
2021,06,28,04,36,22.30
2021,06,28,04,37,22.30
2021,06,28,04,38,22.30
2021,06,28,04,39,22.30
2021,06,28,04,40,22.20
2021,06,28,04,41,22.20
2021,06,28,04,42,22.20
2021,06,28,04,43,22.20
2021,06,28,04,44,22.20
2021,06,28,04,45,22.10
2021,06,28,04,46,22.10
2021,06,28,04,47,22.10
2021,06,28,04,48,22.00
2021,06,28,04,49,22.00
2021,06,28,04,50,21.90
2021,06,28,04,51,21.90
2021,06,28,04,52,21.90
2021,06,28,04,53,21.80
2021,06,28,04,54,21.80
2021,06,28,04,55,21.80
2021,06,28,04,56,21.80
2021,06,28,04,57,21.70
2021,06,28,04,58,21.70
2021,06,28,04,59,21.70
2021,06,28,05,00,21.60
2021,06,28,05,01,21.60
2021,06,28,05,02,21.60
2021,06,28,05,03,21.60
2021,06,28,05,04,21.50
2021,06,28,05,05,21.50
2021,06,28,05,06,21.50
2021,06,28,05,07,21.40
2021,06,28,05,08,21.40
2021,06,28,05,09,21.40
2021,06,28,05,10,21.40
2021,06,28,05,11,21.40
2021,06,28,05,12,21.40
2021,06,28,05,13,21.40
2021,06,28,05,14,21.40
2021,06,28,05,15,21.40
2021,06,28,05,16,21.40
2021,06,28,05,17,21.30
2021,06,28,05,18,21.30
2021,06,28,05,19,21.30
2021,06,28,05,20,21.30
2021,06,28,05,21,21.30
2021,06,28,05,22,21.30
2021,06,28,05,23,21.20
2021,06,28,05,24,21.20
2021,06,28,05,25,21.20
2021,06,28,05,26,21.20
2021,06,28,05,27,21.20
2021,06,28,05,28,21.20
2021,06,28,05,29,21.20
2021,06,28,05,30,21.20
2021,06,28,05,31,21.20
2021,06,28,05,32,21.20
2021,06,28,05,33,21.20
2021,06,28,05,34,21.20
2021,06,28,05,35,21.20
2021,06,28,05,36,21.20
2021,06,28,05,37,21.20
2021,06,28,05,38,21.20
2021,06,28,05,39,21.20
2021,06,28,05,40,21.20
2021,06,28,05,41,21.20
2021,06,28,05,42,21.20
2021,06,28,05,43,21.20
2021,06,28,05,44,21.20
2021,06,28,05,45,21.30
2021,06,28,05,46,21.30
2021,06,28,05,47,21.30
2021,06,28,05,48,21.30
2021,06,28,05,49,21.30
2021,06,28,05,50,21.30
2021,06,28,05,51,21.30
2021,06,28,05,52,21.30
2021,06,28,05,53,21.30
2021,06,28,05,54,21.40
2021,06,28,05,55,21.40
2021,06,28,05,56,21.40
2021,06,28,05,57,21.50
2021,06,28,05,58,21.50
2021,06,28,05,59,21.60
2021,06,28,06,00,21.70
2021,06,28,06,01,21.70
2021,06,28,06,02,21.80
2021,06,28,06,03,21.90
2021,06,28,06,04,21.90
2021,06,28,06,05,22.00
2021,06,28,06,06,22.10
2021,06,28,06,07,22.20
2021,06,28,06,08,22.20
2021,06,28,06,09,22.30
2021,06,28,06,10,22.40
2021,06,28,06,11,22.50
2021,06,28,06,12,22.50
2021,06,28,06,13,22.60
2021,06,28,06,14,22.70
2021,06,28,06,15,22.80
2021,06,28,06,16,22.80
2021,06,28,06,17,22.90
2021,06,28,06,18,23.00
2021,06,28,06,19,23.00
2021,06,28,06,20,23.10
2021,06,28,06,21,23.20
2021,06,28,06,22,23.20
2021,06,28,06,23,23.30
2021,06,28,06,24,23.40
2021,06,28,06,25,23.40
2021,06,28,06,26,23.50
2021,06,28,06,27,23.60
2021,06,28,06,28,23.60
2021,06,28,06,29,23.70
2021,06,28,06,30,23.70
2021,06,28,06,31,23.80
2021,06,28,06,32,23.80
2021,06,28,06,33,23.90
2021,06,28,06,34,24.00
2021,06,28,06,35,24.00
2021,06,28,06,36,24.10
2021,06,28,06,37,24.20
2021,06,28,06,38,24.20
2021,06,28,06,39,24.30
2021,06,28,06,40,24.30
2021,06,28,06,41,24.40
2021,06,28,06,42,24.40
2021,06,28,06,43,24.50
2021,06,28,06,44,24.50
2021,06,28,06,45,24.60
2021,06,28,06,46,24.60
2021,06,28,06,47,24.70
2021,06,28,06,48,24.70
2021,06,28,06,49,24.70
2021,06,28,06,50,24.80
2021,06,28,06,51,24.90
2021,06,28,06,52,24.90
2021,06,28,06,53,25.00
2021,06,28,06,54,25.10
2021,06,28,06,55,25.20
2021,06,28,06,56,25.30
2021,06,28,06,57,25.40
2021,06,28,06,58,25.40
2021,06,28,06,59,25.50
2021,06,28,07,00,25.60
2021,06,28,07,01,25.60
2021,06,28,07,02,25.70
2021,06,28,07,03,25.80
2021,06,28,07,04,25.90
2021,06,28,07,05,26.00
2021,06,28,07,06,26.10
2021,06,28,07,07,26.20
2021,06,28,07,08,26.20
2021,06,28,07,09,26.30
2021,06,28,07,10,26.40
2021,06,28,07,11,26.50
2021,06,28,07,12,26.60
2021,06,28,07,13,26.70
2021,06,28,07,14,26.80
2021,06,28,07,15,26.90
2021,06,28,07,16,27.00
2021,06,28,07,17,27.10
2021,06,28,07,18,27.20
2021,06,28,07,19,27.30
2021,06,28,07,20,27.30
2021,06,28,07,21,27.40
2021,06,28,07,22,27.50
2021,06,28,07,23,27.60
2021,06,28,07,24,27.70
2021,06,28,07,25,27.70
2021,06,28,07,26,27.80
2021,06,28,07,27,27.80
2021,06,28,07,28,27.90
2021,06,28,07,29,27.90
2021,06,28,07,30,28.00
2021,06,28,07,31,28.10
2021,06,28,07,32,28.10
2021,06,28,07,33,28.20
2021,06,28,07,34,28.30
2021,06,28,07,35,28.40
2021,06,28,07,36,28.40
2021,06,28,07,37,28.40
2021,06,28,07,38,28.40
2021,06,28,07,39,28.40
2021,06,28,07,40,28.30
2021,06,28,07,41,28.30
2021,06,28,07,42,28.20
2021,06,28,07,43,28.20
2021,06,28,07,44,28.10
2021,06,28,07,45,28.10
2021,06,28,07,46,28.00
2021,06,28,07,47,28.00
2021,06,28,07,48,28.00
2021,06,28,07,49,27.90
2021,06,28,07,50,27.90
2021,06,28,07,51,27.90
2021,06,28,07,52,27.90
2021,06,28,07,53,27.90
2021,06,28,07,54,27.80
2021,06,28,07,55,27.80
2021,06,28,07,56,27.80
2021,06,28,07,57,27.90
2021,06,28,07,58,27.90
2021,06,28,07,59,28.00
2021,06,28,08,00,28.00
2021,06,28,08,01,28.10
2021,06,28,08,02,28.10
2021,06,28,08,03,28.20
2021,06,28,08,04,28.30
2021,06,28,08,05,28.40
2021,06,28,08,06,28.50
2021,06,28,08,07,28.60
2021,06,28,08,08,28.70
2021,06,28,08,09,28.70
2021,06,28,08,10,28.80
2021,06,28,08,11,28.80
2021,06,28,08,12,28.90
2021,06,28,08,13,28.90
2021,06,28,08,14,29.00
2021,06,28,08,15,29.00
2021,06,28,08,16,29.00
2021,06,28,08,17,29.10
2021,06,28,08,18,29.10
2021,06,28,08,19,29.10
2021,06,28,08,20,29.10
2021,06,28,08,21,29.10
2021,06,28,08,22,29.00
2021,06,28,08,23,29.00
2021,06,28,08,24,28.80
2021,06,28,08,25,28.80
2021,06,28,08,26,28.70
2021,06,28,08,27,28.70
2021,06,28,08,28,28.70
2021,06,28,08,29,28.70
2021,06,28,08,30,28.70
2021,06,28,08,31,28.70
2021,06,28,08,32,28.80
2021,06,28,08,33,28.80
2021,06,28,08,34,28.80
2021,06,28,08,35,28.90
2021,06,28,08,36,28.90
2021,06,28,08,37,28.90
2021,06,28,08,38,28.90
2021,06,28,08,39,28.90
2021,06,28,08,40,29.00
2021,06,28,08,41,29.00
2021,06,28,08,42,29.10
2021,06,28,08,43,29.10
2021,06,28,08,44,29.10
2021,06,28,08,45,29.10
2021,06,28,08,46,29.10
2021,06,28,08,47,29.10
2021,06,28,08,48,29.10
2021,06,28,08,49,29.10
2021,06,28,08,50,29.10
2021,06,28,08,51,29.00
2021,06,28,08,52,28.90
2021,06,28,08,53,28.80
2021,06,28,08,54,28.80
2021,06,28,08,55,28.70
2021,06,28,08,56,28.60
2021,06,28,08,57,28.60
2021,06,28,08,58,28.60
2021,06,28,08,59,28.50
2021,06,28,09,00,28.50
2021,06,28,09,01,28.50
2021,06,28,09,02,28.50
2021,06,28,09,03,28.50
2021,06,28,09,04,28.60
2021,06,28,09,05,28.60
2021,06,28,09,06,28.70
2021,06,28,09,07,28.70
2021,06,28,09,08,28.80
2021,06,28,09,09,28.80
2021,06,28,09,10,28.80
2021,06,28,09,11,28.80
2021,06,28,09,12,28.80
2021,06,28,09,13,28.80
2021,06,28,09,14,28.80
2021,06,28,09,15,28.90
2021,06,28,09,16,28.90
2021,06,28,09,17,28.90
2021,06,28,09,18,28.90
2021,06,28,09,19,29.00
2021,06,28,09,20,29.10
2021,06,28,09,21,29.10
2021,06,28,09,22,29.10
2021,06,28,09,23,29.20
2021,06,28,09,24,29.30
2021,06,28,09,25,29.40
2021,06,28,09,26,29.50
2021,06,28,09,27,29.60
2021,06,28,09,28,29.60
2021,06,28,09,29,29.70
2021,06,28,09,30,29.70
2021,06,28,09,31,29.80
2021,06,28,09,32,29.80
2021,06,28,09,33,29.80
2021,06,28,09,34,29.80
2021,06,28,09,35,29.80
2021,06,28,09,36,29.90
2021,06,28,09,37,29.90
2021,06,28,09,38,30.00
2021,06,28,09,39,30.00
2021,06,28,09,40,30.00
2021,06,28,09,41,30.00
2021,06,28,09,42,30.00
2021,06,28,09,43,30.00
2021,06,28,09,44,30.00
2021,06,28,09,45,29.90
2021,06,28,09,46,29.80
2021,06,28,09,47,29.80
2021,06,28,09,48,29.80
2021,06,28,09,49,29.90
2021,06,28,09,50,29.90
2021,06,28,09,51,30.00
2021,06,28,09,52,30.10
2021,06,28,09,53,30.10
2021,06,28,09,54,30.20
2021,06,28,09,55,30.10
2021,06,28,09,56,30.10
2021,06,28,09,57,30.10
2021,06,28,09,58,30.10
2021,06,28,09,59,30.10
2021,06,28,10,00,30.10
2021,06,28,10,01,30.00
2021,06,28,10,02,30.00
2021,06,28,10,03,29.90
2021,06,28,10,04,29.90
2021,06,28,10,05,29.90
2021,06,28,10,06,29.90
2021,06,28,10,07,30.00
2021,06,28,10,08,30.00
2021,06,28,10,09,29.90
2021,06,28,10,10,30.00
2021,06,28,10,11,30.00
2021,06,28,10,12,30.10
2021,06,28,10,13,30.20
2021,06,28,10,14,30.20
2021,06,28,10,15,30.30
2021,06,28,10,16,30.50
2021,06,28,10,17,30.50
2021,06,28,10,18,30.60
2021,06,28,10,19,30.60
2021,06,28,10,20,30.60
2021,06,28,10,21,30.60
2021,06,28,10,22,30.60
2021,06,28,10,23,30.60
2021,06,28,10,24,30.60
2021,06,28,10,25,30.60
2021,06,28,10,26,30.60
2021,06,28,10,27,30.60
2021,06,28,10,28,30.60
2021,06,28,10,29,30.60
2021,06,28,10,30,30.60
2021,06,28,10,31,30.50
2021,06,28,10,32,30.50
2021,06,28,10,33,30.50
2021,06,28,10,34,30.50
2021,06,28,10,35,30.40
2021,06,28,10,36,30.40
2021,06,28,10,37,30.40
2021,06,28,10,38,30.50
2021,06,28,10,39,30.50
2021,06,28,10,40,30.50
2021,06,28,10,41,30.50
2021,06,28,10,42,30.60
2021,06,28,10,43,30.60
2021,06,28,10,44,30.60
2021,06,28,10,45,30.60
2021,06,28,10,46,30.60
2021,06,28,10,47,30.70
2021,06,28,10,48,30.70
2021,06,28,10,49,30.80
2021,06,28,10,50,31.00
2021,06,28,10,51,31.10
2021,06,28,10,52,31.20
2021,06,28,10,53,31.30
2021,06,28,10,54,31.40
2021,06,28,10,55,31.50
2021,06,28,10,56,31.70
2021,06,28,10,57,31.80
2021,06,28,10,58,31.90
2021,06,28,10,59,32.00
2021,06,28,11,00,32.20
2021,06,28,11,01,32.30
2021,06,28,11,02,32.40
2021,06,28,11,03,32.50
2021,06,28,11,04,32.50
2021,06,28,11,05,32.60
2021,06,28,11,06,32.70
2021,06,28,11,07,32.70
2021,06,28,11,08,32.80
2021,06,28,11,09,32.70
2021,06,28,11,10,32.70
2021,06,28,11,11,32.80
2021,06,28,11,12,32.80
2021,06,28,11,13,32.70
2021,06,28,11,14,32.50
2021,06,28,11,15,32.50
2021,06,28,11,16,32.60
2021,06,28,11,17,32.60
2021,06,28,11,18,32.60
2021,06,28,11,19,32.60
2021,06,28,11,20,32.60
2021,06,28,11,21,32.60
2021,06,28,11,22,32.60
2021,06,28,11,23,32.60
2021,06,28,11,24,32.60
2021,06,28,11,25,32.70
2021,06,28,11,26,32.70
2021,06,28,11,27,32.60
2021,06,28,11,28,32.60
2021,06,28,11,29,32.70
2021,06,28,11,30,32.70
2021,06,28,11,31,32.60
2021,06,28,11,32,32.60
2021,06,28,11,33,32.60
2021,06,28,11,34,32.70
2021,06,28,11,35,32.70
2021,06,28,11,36,32.80
2021,06,28,11,37,32.80
2021,06,28,11,38,32.90
2021,06,28,11,39,32.90
2021,06,28,11,40,33.00
2021,06,28,11,41,33.00
2021,06,28,11,42,33.10
2021,06,28,11,43,33.10
2021,06,28,11,44,33.20
2021,06,28,11,45,33.20
2021,06,28,11,46,33.30
2021,06,28,11,47,33.30
2021,06,28,11,48,33.30
2021,06,28,11,49,33.30
2021,06,28,11,50,33.40
2021,06,28,11,51,33.40
2021,06,28,11,52,33.50
2021,06,28,11,53,33.60
2021,06,28,11,54,33.60
2021,06,28,11,55,33.60
2021,06,28,11,56,33.60
2021,06,28,11,57,33.50
2021,06,28,11,58,33.40
2021,06,28,11,59,33.40
2021,06,28,12,00,33.40
2021,06,28,12,01,33.40
2021,06,28,12,02,33.40
2021,06,28,12,03,33.40
2021,06,28,12,04,33.40
2021,06,28,12,05,33.40
2021,06,28,12,06,33.50
2021,06,28,12,07,33.50
2021,06,28,12,08,33.60
2021,06,28,12,09,33.60
2021,06,28,12,10,33.70
2021,06,28,12,11,33.70
2021,06,28,12,12,33.70
2021,06,28,12,13,33.70
2021,06,28,12,14,33.70
2021,06,28,12,15,33.80
2021,06,28,12,16,33.80
2021,06,28,12,17,33.70
2021,06,28,12,18,33.70
2021,06,28,12,19,33.50
2021,06,28,12,20,33.40
2021,06,28,12,21,33.40
2021,06,28,12,22,33.40
2021,06,28,12,23,33.40
2021,06,28,12,24,33.40
2021,06,28,12,25,33.50
2021,06,28,12,26,33.50
2021,06,28,12,27,33.60
2021,06,28,12,28,33.70
2021,06,28,12,29,33.70
2021,06,28,12,30,33.80
2021,06,28,12,31,33.80
2021,06,28,12,32,33.70
2021,06,28,12,33,33.70
2021,06,28,12,34,33.70
2021,06,28,12,35,33.70
2021,06,28,12,36,33.70
2021,06,28,12,37,33.70
2021,06,28,12,38,33.70
2021,06,28,12,39,33.80
2021,06,28,12,40,33.80
2021,06,28,12,41,33.80
2021,06,28,12,42,33.80
2021,06,28,12,43,33.80
2021,06,28,12,44,33.80
2021,06,28,12,45,33.90
2021,06,28,12,46,33.90
2021,06,28,12,47,33.90
2021,06,28,12,48,33.90
2021,06,28,12,49,33.90
2021,06,28,12,50,33.80
2021,06,28,12,51,33.80
2021,06,28,12,52,33.60
2021,06,28,12,53,33.60
2021,06,28,12,54,33.60
2021,06,28,12,55,33.70
2021,06,28,12,56,33.60
2021,06,28,12,57,33.60
2021,06,28,12,58,33.60
2021,06,28,12,59,33.70
2021,06,28,13,00,33.70
2021,06,28,13,01,33.80
2021,06,28,13,02,33.80
2021,06,28,13,03,33.90
2021,06,28,13,04,34.10
2021,06,28,13,05,34.10
2021,06,28,13,06,34.10
2021,06,28,13,07,34.10
2021,06,28,13,08,34.10
2021,06,28,13,09,34.10
2021,06,28,13,10,34.20
2021,06,28,13,11,34.30
2021,06,28,13,12,34.40
2021,06,28,13,13,34.50
2021,06,28,13,14,34.50
2021,06,28,13,15,34.60
2021,06,28,13,16,34.60
2021,06,28,13,17,34.60
2021,06,28,13,18,34.70
2021,06,28,13,19,34.70
2021,06,28,13,20,34.70
2021,06,28,13,21,34.80
2021,06,28,13,22,34.80
2021,06,28,13,23,34.80
2021,06,28,13,24,34.70
2021,06,28,13,25,34.70
2021,06,28,13,26,34.70
2021,06,28,13,27,34.80
2021,06,28,13,28,34.80
2021,06,28,13,29,34.90
2021,06,28,13,30,35.00
2021,06,28,13,31,35.10
2021,06,28,13,32,35.20
2021,06,28,13,33,35.20
2021,06,28,13,34,35.20
2021,06,28,13,35,35.20
2021,06,28,13,36,35.00
2021,06,28,13,37,35.00
2021,06,28,13,38,34.90
2021,06,28,13,39,34.90
2021,06,28,13,40,34.90
2021,06,28,13,41,34.70
2021,06,28,13,42,34.60
2021,06,28,13,43,34.50
2021,06,28,13,44,34.50
2021,06,28,13,45,34.50
2021,06,28,13,46,34.60
2021,06,28,13,47,34.70
2021,06,28,13,48,34.80
2021,06,28,13,49,34.80
2021,06,28,13,50,34.70
2021,06,28,13,51,34.70
2021,06,28,13,52,34.60
2021,06,28,13,53,34.50
2021,06,28,13,54,34.40
2021,06,28,13,55,34.40
2021,06,28,13,56,34.40
2021,06,28,13,57,34.30
2021,06,28,13,58,34.20
2021,06,28,13,59,34.20
2021,06,28,14,00,34.10
2021,06,28,14,01,34.10
2021,06,28,14,02,34.10
2021,06,28,14,03,34.10
2021,06,28,14,04,34.20
2021,06,28,14,05,34.20
2021,06,28,14,06,34.20
2021,06,28,14,07,34.20
2021,06,28,14,08,34.30
2021,06,28,14,09,34.30
2021,06,28,14,10,34.30
2021,06,28,14,11,34.50
2021,06,28,14,12,34.60
2021,06,28,14,13,34.80
2021,06,28,14,14,34.90
2021,06,28,14,15,35.10
2021,06,28,14,16,35.20
2021,06,28,14,17,35.40
2021,06,28,14,18,35.40
2021,06,28,14,19,35.40
2021,06,28,14,20,35.50
2021,06,28,14,21,35.50
2021,06,28,14,22,35.40
2021,06,28,14,23,35.40
2021,06,28,14,24,35.40
2021,06,28,14,25,35.40
2021,06,28,14,26,35.30
2021,06,28,14,27,35.30
2021,06,28,14,28,35.30
2021,06,28,14,29,35.30
2021,06,28,14,30,35.30
2021,06,28,14,31,35.30
2021,06,28,14,32,35.30
2021,06,28,14,33,35.30
2021,06,28,14,34,35.40
2021,06,28,14,35,35.40
2021,06,28,14,36,35.30
2021,06,28,14,37,35.30
2021,06,28,14,38,35.30
2021,06,28,14,39,35.30
2021,06,28,14,40,35.40
2021,06,28,14,41,35.50
2021,06,28,14,42,35.50
2021,06,28,14,43,35.50
2021,06,28,14,44,35.60
2021,06,28,14,45,35.70
2021,06,28,14,46,35.80
2021,06,28,14,47,35.90
2021,06,28,14,48,36.00
2021,06,28,14,49,36.00
2021,06,28,14,50,36.10
2021,06,28,14,51,36.10
2021,06,28,14,52,36.10
2021,06,28,14,53,36.00
2021,06,28,14,54,36.00
2021,06,28,14,55,35.90
2021,06,28,14,56,35.90
2021,06,28,14,57,35.90
2021,06,28,14,58,35.80
2021,06,28,14,59,35.80
2021,06,28,15,00,35.80
2021,06,28,15,01,35.80
2021,06,28,15,02,35.80
2021,06,28,15,03,35.80
2021,06,28,15,04,35.90
2021,06,28,15,05,35.90
2021,06,28,15,06,36.00
2021,06,28,15,07,36.10
2021,06,28,15,08,36.20
2021,06,28,15,09,36.20
2021,06,28,15,10,36.20
2021,06,28,15,11,36.20
2021,06,28,15,12,36.20
2021,06,28,15,13,36.20
2021,06,28,15,14,36.20
2021,06,28,15,15,36.20
2021,06,28,15,16,36.30
2021,06,28,15,17,36.30
2021,06,28,15,18,36.30
2021,06,28,15,19,36.30
2021,06,28,15,20,36.30
2021,06,28,15,21,36.20
2021,06,28,15,22,36.20
2021,06,28,15,23,36.30
2021,06,28,15,24,36.40
2021,06,28,15,25,36.40
2021,06,28,15,26,36.50
2021,06,28,15,27,36.70
2021,06,28,15,28,36.80
2021,06,28,15,29,36.90
2021,06,28,15,30,36.90
2021,06,28,15,31,36.90
2021,06,28,15,32,36.90
2021,06,28,15,33,36.90
2021,06,28,15,34,36.90
2021,06,28,15,35,36.90
2021,06,28,15,36,36.90
2021,06,28,15,37,36.80
2021,06,28,15,38,36.80
2021,06,28,15,39,36.80
2021,06,28,15,40,36.90
2021,06,28,15,41,36.90
2021,06,28,15,42,37.00
2021,06,28,15,43,37.00
2021,06,28,15,44,37.10
2021,06,28,15,45,37.10
2021,06,28,15,46,37.20
2021,06,28,15,47,37.30
2021,06,28,15,48,37.30
2021,06,28,15,49,37.30
2021,06,28,15,50,37.40
2021,06,28,15,51,37.40
2021,06,28,15,52,37.30
2021,06,28,15,53,37.30
2021,06,28,15,54,37.30
2021,06,28,15,55,37.20
2021,06,28,15,56,37.20
2021,06,28,15,57,37.20
2021,06,28,15,58,37.10
2021,06,28,15,59,37.10
2021,06,28,16,00,37.00
2021,06,28,16,01,36.90
2021,06,28,16,02,36.90
2021,06,28,16,03,36.90
2021,06,28,16,04,36.80
2021,06,28,16,05,36.80
2021,06,28,16,06,36.70
2021,06,28,16,07,36.70
2021,06,28,16,08,36.70
2021,06,28,16,09,36.70
2021,06,28,16,10,36.70
2021,06,28,16,11,36.70
2021,06,28,16,12,36.70
2021,06,28,16,13,36.70
2021,06,28,16,14,36.70
2021,06,28,16,15,36.60
2021,06,28,16,16,36.50
2021,06,28,16,17,36.50
2021,06,28,16,18,36.60
2021,06,28,16,19,36.60
2021,06,28,16,20,36.60
2021,06,28,16,21,36.70
2021,06,28,16,22,36.80
2021,06,28,16,23,36.80
2021,06,28,16,24,36.80
2021,06,28,16,25,36.80
2021,06,28,16,26,36.80
2021,06,28,16,27,36.80
2021,06,28,16,28,36.80
2021,06,28,16,29,36.80
2021,06,28,16,30,36.80
2021,06,28,16,31,36.80
2021,06,28,16,32,36.80
2021,06,28,16,33,36.90
2021,06,28,16,34,37.00
2021,06,28,16,35,37.10
2021,06,28,16,36,37.20
2021,06,28,16,37,37.30
2021,06,28,16,38,37.30
2021,06,28,16,39,37.40
2021,06,28,16,40,37.40
2021,06,28,16,41,37.40
2021,06,28,16,42,37.40
2021,06,28,16,43,37.30
2021,06,28,16,44,37.20
2021,06,28,16,45,37.10
2021,06,28,16,46,37.10
2021,06,28,16,47,37.00
2021,06,28,16,48,36.90
2021,06,28,16,49,36.90
2021,06,28,16,50,37.00
2021,06,28,16,51,37.00
2021,06,28,16,52,37.10
2021,06,28,16,53,37.10
2021,06,28,16,54,37.20
2021,06,28,16,55,37.20
2021,06,28,16,56,37.30
2021,06,28,16,57,37.30
2021,06,28,16,58,37.30
2021,06,28,16,59,37.30
2021,06,28,17,00,37.30
2021,06,28,17,01,37.30
2021,06,28,17,02,37.30
2021,06,28,17,03,37.30
2021,06,28,17,04,37.30
2021,06,28,17,05,37.30
2021,06,28,17,06,37.30
2021,06,28,17,07,37.30
2021,06,28,17,08,37.40
2021,06,28,17,09,37.40
2021,06,28,17,10,37.40
2021,06,28,17,11,37.40
2021,06,28,17,12,37.30
2021,06,28,17,13,37.30
2021,06,28,17,14,37.30
2021,06,28,17,15,37.30
2021,06,28,17,16,37.20
2021,06,28,17,17,37.20
2021,06,28,17,18,37.30
2021,06,28,17,19,37.20